Location: Gwatt
(46.7204°N, 7.6223°E)
Time: 01:51:41
(UTC+00:00)

Transit 2A - Pass Details

Date: 26 January 2021
Orbit: 601 x 958 km, 66.7° (Epoch: 07 March)

Event Time Altitude Azimuth Distance (km) Brightness Sun altitude
Rises 11:44:15 0° 323° (NW) 3,007 8.6 24.7°
Reaches altitude 10° 11:46:39 10° 320° (NW) 2,048 7.9 24.7°
Maximum altitude 11:51:08 58° 242° (WSW) 721 6.6 24.7°
Drops below altitude 10° 11:55:23 10° 163° (SSE) 1,942 9.6 24.6°
Sets 11:57:36 0° 159° (SSE) 2,835 10.0 24.6°
